Location: Rozas de Puerto Real
(40.3094°N, 4.4952°W)
Time: 14:34:22
(UTC+00:00)

Daily predictions for brighter satellites

Satellite Brightness Start Highest point End
(mag) Time Altitude Azimuth Time Altitude Azimuth Time Altitude Azimuth
Cosmos 1833 Rocket 2.7 19:44:39 10° SSW 19:50:11 68° ESE 19:55:45 10° NNE
CSL-04 Rocket 3.8 19:45:20 10° SSE 19:50:46 64° ENE 19:56:10 10° N
ATLAS 2AS CENTAUR R/B 3.1 19:44:15 10° SW 19:51:15 72° NW 19:58:06 10° NNE
ARIANE 6 FM1 Upper Stage 2.9 19:49:06 10° NW 19:53:02 64° WSW 19:56:58 10° SSE
CZ-4B R/B 4.2 19:49:04 10° SE 19:53:58 31° ENE 19:58:52 10° N
Cosmos 1975 Rocket 3.7 19:52:42 10° NNW 19:56:58 58° W 20:01:11 10° S
SL-4 R/B 2.8 19:58:57 10° NW 20:02:32 38° NNE 20:06:11 10° E
Cosmos 2173 Rocket 4.4 20:00:30 10° SSE 20:06:10 42° E 20:11:56 10° NNE
Okean 1 Rocket 3.7 20:02:24 10° SSE 20:06:22 35° E 20:10:23 10° NNE
Cosmos 1190 Rocket 4.1 20:01:17 10° NNW 20:06:33 82° WSW 20:11:44 10° SSE
ADEOS 4.3 20:02:59 10° SE 20:07:40 35° ENE 20:12:22 10° N
Cosmos 332 Rocket 3.9 20:04:07 10° NNW 20:08:50 59° ENE 20:13:29 10° SSE
Cosmos 2058 3.7 20:06:29 10° NNW 20:10:14 49° W 20:13:59 10° SSW
PAYLOAD B 4.4 20:09:11 10° SSE 20:14:32 56° ENE 20:19:56 10° N
Cosmos 1656 4.4 20:10:08 10° NNW 20:15:30 53° WSW 20:20:55 10° S
Cosmos 2251 Rocket 4.0 20:10:14 10° NNW 20:15:32 64° WSW 20:20:49 10° S
Helios 1A Rocket 2.2 20:14:41 10° NNE 20:17:49 61° ESE 20:20:54 10° S
ERS-1 Rocket 3.0 20:17:26 10° SSE 20:22:21 63° ENE 20:27:20 10° N
IRAS Rocket 4.3 20:21:55 10° SSE 20:27:23 86° WSW 20:32:53 10° NNW
SKYMED 3 4.4 20:23:40 10° NNE 20:27:31 53° E 20:31:24 10° S
Cosmos 1954 Rocket 4.4 20:22:37 10° NNW 20:27:43 62° WSW 20:32:46 10° S
DELTA 2 R/B (1) 4.0 20:23:14 10° SW 20:28:23 40° SSE 20:33:32 10° E
Cosmos 2082 Rocket 3.2 20:24:00 10° SSE 20:28:39 26° ESE 20:33:19 10° NE
Cosmos 1452 Rocket 3.8 20:23:46 10° S 20:28:42 44° ESE 20:33:39 10° NNE
DEBRIS 3.5 20:26:50 10° W 20:29:07 45° NNW 20:33:49 10° NE
ATLAS 3B R/B 3.2 20:21:35 10° NNW 20:29:13 57° NE 20:34:57 17° SE
SJ 16-02 3.4 20:25:50 10° NW 20:29:20 25° W 20:32:49 10° SSW
Meteor 1-31 Rocket 3.2 20:30:05 10° S 20:33:29 52° W 20:36:54 10° NNW
Sich 1 Rocket 3.5 20:29:35 10° S 20:33:53 64° E 20:38:12 10° NNE
Cosmos 1331 Rocket 3.9 20:30:18 10° SSW 20:35:32 77° ESE 20:40:46 10° NNE
Cosmos 1802 Rocket 4.2 20:29:48 10° SSE 20:35:45 51° E 20:41:41 10° NNE
SL-08 R/B 3.4 20:31:15 10° NNE 20:36:01 57° E 20:40:41 10° S
Cosmos 968 Rocket 3.5 20:33:49 10° NNW 20:39:04 71° ENE 20:42:54 18° SSE
Cosmos 676 Rocket 4.4 20:38:50 10° NNW 20:43:58 62° WSW 20:48:46 11° S
Cosmos 1302 Rocket 4.5 20:41:09 14° SSE 20:45:00 37° ESE 20:49:44 10° NE
Terra 1.9 20:46:31 14° S 20:50:34 77° WSW 20:55:18 10° NNW
NOSS 3-3 (A) 4.1 20:47:26 15° S 20:50:57 32° ESE 20:55:54 10° NE
Milstar 3 3.8 20:45:42 10° WSW 20:51:48 34° S 20:56:26 21° SE
Cosmos 1697 Rocket 2.7 20:46:28 10° NNW 20:52:06 82° WSW 20:56:07 20° SSE
Cosmos 1459 Rocket 4.0 20:45:58 10° S 20:52:14 87° W 20:58:27 10° N
ASTEX 1 4.4 20:48:25 10° SSW 20:53:09 46° W 20:57:55 10° NNW
IRS-1A Rocket 4.3 20:50:58 18° SSE 20:55:25 82° ENE 21:01:18 10° NNW
SL-16 R/B 4.4 20:55:10 10° NNE 20:57:27 12° NE 20:59:46 10° ENE
Cosmos 2100 Rocket 4.3 20:52:44 10° SSW 20:58:54 70° W 21:05:12 10° N
Cosmos 2228 3.4 20:58:22 32° SE 20:59:30 40° E 21:03:22 10° NNE
USA 306 1.7 20:56:28 10° SW 21:00:01 77° SE 21:00:59 37° ENE
USA 186 1.9 21:00:42 40° ENE 21:00:42 40° ENE 21:03:03 10° N
Cosmos 1782 2.6 21:00:48 41° SE 21:01:31 50° E 21:04:56 10° NNE
Okean 2 Rocket 4.1 20:58:04 10° SSW 21:02:21 46° W 21:06:41 10° N
Cosmos 1864 Rocket 4.5 20:56:34 10° S 21:02:54 86° E 21:09:18 10° N
Cosmos 1743 2.4 21:00:19 10° N 21:03:14 46° E 21:03:15 46° E
SPOT 3 Rocket 4.4 21:02:11 26° ESE 21:04:06 35° ENE 21:08:45 10° N
Cosmos 1850 Rocket 3.9 21:01:52 10° NNW 21:07:02 79° ENE 21:09:35 31° SSE
Cosmos 44 Rocket 3.9 21:02:33 10° SW 21:07:31 61° NW 21:12:38 10° NNE
Cosmos 1607 3.8 21:05:59 10° SSW 21:12:05 78° ESE 21:18:19 10° NE
Cosmos 2333 Rocket 4.3 21:09:56 10° NNE 21:13:00 15° NE 21:15:41 11° ENE
CZ-4B R/B 3.6 21:13:31 29° ENE 21:13:31 29° ENE 21:16:17 10° N
CZ-4 R/B 3.8 21:13:55 10° SW 21:16:17 16° W 21:18:39 10° NW
Okean O Rocket 1.5 21:15:58 36° S 21:17:41 85° W 21:22:00 10° NNW
ISS -2.2 21:15:15 10° W 21:18:23 37° NNW 21:21:31 10° NE
Cosmos 2233 Rocket 3.9 21:14:27 22° S 21:18:33 70° E 21:24:43 10° NNE
NOSS 3-3 (C) 3.7 21:17:31 32° SSE 21:19:22 46° ESE 21:24:51 10° NE
Cosmos 1980 Rocket 2.2 21:15:03 10° NNW 21:20:45 76° ENE 21:23:05 37° SE
SL-08 R/B 4.4 21:17:05 17° S 21:22:03 86° E 21:28:26 10° N
USA 245 4.3 21:25:10 37° SE 21:27:30 67° ENE 21:33:20 10° N
Cosmos 1725 Rocket 4.4 21:24:45 10° SSW 21:30:58 64° W 21:37:12 10° N
Okean-O 2.9 21:30:19 36° SSW 21:31:56 61° W 21:36:16 10° NNW
BREEZE-M DEB (TANK) 3.7 21:29:33 10° WNW 21:33:00 88° NE 21:36:34 33° ESE
Tsikada Rocket 3.9 21:27:53 10° N 21:34:05 76° E 21:36:32 39° SSE
Aureole 3 Rocket 4.4 21:30:34 30° SSE 21:34:14 71° E 21:42:58 10° NNE
Ariane Rocket 3.3 21:33:20 43° ESE 21:34:23 51° ENE 21:39:17 10° N
CZ-4C R/B 3.6 21:31:25 10° WSW 21:35:06 30° NW 21:39:36 10° NNE
Cosmos 1455 Rocket 4.1 21:33:19 14° SSW 21:36:46 43° WNW 21:40:59 10° N
Cosmos 1892 Rocket 4.0 21:33:22 10° NNW 21:37:36 56° W 21:38:57 38° SSW
SL-4 R/B 2.9 21:36:22 10° WNW 21:39:46 34° SW 21:39:46 34° SW
Spot 2 Rocket 4.1 21:37:52 27° SSW 21:40:17 49° W 21:45:10 10° NNW
Cosmos 2360 Rocket 4.2 21:43:09 10° NNE 21:46:23 15° NE 21:48:24 13° ENE
Cosmos 2084 Rocket 4.3 21:42:54 10° NNW 21:46:50 37° NE 21:47:04 37° ENE
Cosmos 1437 Rocket 4.4 21:48:45 22° NE 21:48:45 22° NE 21:50:17 10° NNE
Gbstr 26 Del rocket 3.0 21:43:25 10° NW 21:48:12 67° NNE 21:48:34 63° ENE
Cosmos 1544 Rocket 3.6 21:49:36 60° ENE 21:49:36 60° ENE 21:53:35 10° NNE
BREEZE-M DEB (TANK) 3.3 21:48:43 10° WSW 21:52:50 46° W 21:52:50 46° W
USA 234 4.0 21:53:29 10° ENE 21:57:36 31° E 21:57:36 31° E
Cosmos 2237 4.2 21:54:45 10° NNW 22:00:30 71° ENE 22:01:26 59° ESE
Cosmos 2061 Rocket 4.3 21:58:13 27° SSW 22:01:44 64° W 22:07:58 10° N
Cosmos 2219 Rocket 4.4 22:00:34 10° NNE 22:03:07 13° NE 22:05:13 11° ENE
BREEZE-M DEB (TANK) 4.4 22:02:51 10° WNW 22:04:35 15° NNW 22:04:52 14° NNW
Cosmos 1992 Rocket 4.2 22:05:20 41° SW 22:07:07 70° WNW 22:12:20 10° NNE
Cosmos 909 Rocket 4.4 22:01:16 10° SW 22:07:39 64° NW 22:13:57 10° NNE
Cosmos 1758 Rocket 3.6 22:04:47 10° N 22:08:49 74° N 22:08:49 74° N
Cosmos 2082 Rocket 3.3 22:07:01 10° SW 22:12:26 43° WNW 22:17:52 10° N
Cosmos 2369 3.6 22:08:35 10° NNW 22:14:18 78° WSW 22:15:01 67° S
DELTA 2 R/B (1) 3.4 22:08:54 10° WSW 22:14:26 78° S 22:14:26 78° S
Cosmos 2322 Rocket 3.6 22:10:21 10° N 22:15:01 26° NE 22:15:56 25° ENE
CZ-4B R/B 3.6 22:16:46 55° WSW 22:17:01 56° WSW 22:21:43 10° NNW
Cosmos 1464 Rocket 4.0 22:18:25 57° ESE 22:18:40 58° E 22:24:40 10° NNE
ATLAS 3B R/B 4.0 22:13:03 10° NW 22:19:33 32° WSW 22:22:12 25° SW
Cosmos 1375 Rocket 4.4 22:18:44 57° S 22:20:07 78° ESE 22:26:41 10° NNE
Cosmos 1513 Rocket 4.4 22:20:26 61° S 22:21:40 90° W 22:27:54 10° N
Cosmos 2151 3.8 22:26:41 10° NNW 22:29:47 47° NW 22:29:47 47° NW
Cosmos 1072 Rocket 4.3 22:33:48 74° SSE 22:34:22 85° E 22:40:42 10° N
Cosmos 1602 Rocket 4.3 22:30:17 10° N 22:33:31 50° N 22:33:31 50° N
Cosmos 2278 4.1 22:30:01 10° NNW 22:35:35 51° ENE 22:35:41 51° ENE
COSMOS 2406 3.7 22:36:39 38° WSW 22:38:37 56° WNW 22:44:16 10° NNE
SL-16 R/B 2.2 22:36:52 10° NNW 22:42:24 73° NE 22:42:24 73° NE
Cosmos 2034 Rocket 4.0 22:53:27 73° E 22:53:27 73° E 22:59:44 10° N
Cosmos 1428 Rocket 4.4 22:47:51 10° N 22:54:06 78° E 22:54:06 78° E
ISS -0.5 22:54:09 10° NW 22:55:55 14° N 22:57:24 11° NNE
Cosmos 2333 Rocket 2.2 22:52:24 10° NNW 22:57:41 77° N 22:57:41 77° N
Cosmos 1980 Rocket 4.4 23:01:09 10° WNW 23:03:58 14° W 23:04:50 14° WSW
Cosmos 2098 Rocket 4.4 23:11:32 39° WNW 23:11:32 39° WNW 23:15:41 10° N
Cosmos 540 Rocket 4.4 23:18:15 43° NNE 23:18:15 43° NNE 23:21:43 10° NNE
Cosmos 1634 Rocket 4.2 23:22:44 61° NE 23:22:44 61° NE 23:28:09 10° NNE
Nadezhda 4 Rocket 4.4 23:20:47 10° NNW 23:26:33 50° W 23:26:33 50° W
NOSS 3-4 (A) 3.8 23:21:52 10° NNW 23:28:50 77° NE 23:29:36 71° ESE
NOSS 3-4 (C) 3.9 23:22:28 10° NNW 23:29:28 77° NE 23:30:16 70° ESE
Cosmos 2360 Rocket 2.5 23:25:27 10° NNW 23:30:08 62° NNW 23:30:08 62° NNW
USA 234 3.6 23:36:12 10° NE 23:42:39 63° NW 23:44:54 41° W
Cosmos 1763 Rocket 4.3 23:43:38 48° NNW 23:43:38 48° NNW 23:47:55 10° N
Cosmos 2219 Rocket 2.6 23:42:19 10° NNW 23:46:54 59° N 23:46:54 59° N
Cosmos 2026 Rocket 4.3 23:44:46 10° NNW 23:50:36 58° WNW 23:50:36 58° WNW
